Home > Weather > Malmö > Past weeks

Flag for Sweden Past Weather in Malmö, Sweden — Yesterday and Last 2 Weeks

Now
66 °F

Clear.


Feels Like: 66 °F
Forecast: 65 / 78 °F
Wind: 10 mph from East

Location: Malmo / Sturup

Current Time: May 31, 2016 at 11:54:05 PM

Latest Report: May 31, 2016 at 11:20 PM


Visibility: 10 mi

Pressure: 30.01 "Hg

Humidity: 78%

Dew Point: 59 °F

Location of MalmöLocation

Past Weather in Malmö — Graph

°F

Malmö Temperature Yesterday

Maximum temperature yesterday: 73 °F (at 2:20 PM)
Minimum temperature yesterday: 59 °F (at 2:20 AM)
Average temperature yesterday: 66 °F

High & Low Weather Summary for the Past Weeks

 TemperatureHumidityPressure
High77 °F (May 23, 1:50 PM)100% (May 19, 12:50 AM)30.09 "Hg (May 19, 12:50 AM)
Low39 °F (May 27, 4:20 AM)36% (May 25, 2:20 PM)29.77 "Hg (May 16, 11:20 PM)
Average59 °F74%29.91 "Hg
* Reported May 16 10:20 PM — May 31 10:20 PM, Malmö, Weather by CustomWeather, © 2016

Note: Actual official high and low records may vary slightly from our data, if they occured in-between our weather recording intervals... More about our weather records

Advertising

Malmö Weather History for the Previous 24 Hours

Scroll right to see more
 ConditionsComfort  
Time TempWeatherWind HumidityBarometerVisibility
10:20 PM
Tue, May 31
66 °FSunny.12 mph78%30.01 "Hg10 mi
9:50 PM68 °FSunny.16 mph73%29.98 "Hg10 mi
9:20 PM68 °FSunny.15 mph73%29.98 "Hg10 mi
8:50 PM68 °FSunny.16 mph73%29.98 "Hg10 mi
8:20 PM68 °FSunny.15 mph73%29.98 "Hg10 mi
7:50 PM70 °FSunny.16 mph73%29.98 "Hg10 mi
7:20 PM70 °FSunny.18 mph73%29.98 "Hg10 mi
6:50 PM72 °FSunny.18 mph69%29.98 "Hg10 mi
6:20 PM72 °FSunny.15 mph69%29.98 "Hg10 mi
5:50 PM72 °FSunny.17 mph69%29.95 "Hg10 mi
5:20 PM72 °FSunny.18 mph73%29.95 "Hg10 mi
4:50 PM73 °FSunny.17 mph69%29.95 "Hg10 mi
4:20 PM73 °FSunny.17 mph69%29.95 "Hg10 mi
3:50 PM73 °FSunny.16 mph69%29.95 "Hg10 mi
3:20 PM73 °FSunny.21 mph69%29.95 "Hg10 mi
2:50 PM72 °FSunny.18 mph73%29.98 "Hg10 mi
2:20 PM72 °FSunny.16 mph73%29.98 "Hg10 mi
1:50 PM72 °FSunny.14 mph73%29.98 "Hg10 mi
1:20 PM70 °FScattered clouds.14 mph78%29.98 "HgN/A
12:50 PM68 °FScattered clouds.12 mph88%29.98 "HgN/A
12:20 PM64 °FPassing clouds.7 mph88%29.98 "HgN/A
11:50 AM61 °FStrong thunderstorms. Scattered clouds.3 mph100%29.98 "Hg4 mi
11:20 AM61 °FThunderstorms. Partly sunny.10 mph94%29.98 "Hg3 mi
10:50 AM64 °FThunderstorms. Broken clouds.14 mph88%29.98 "Hg5 mi
10:20 AM63 °FScattered clouds.10 mph94%29.95 "HgN/A
9:50 AM59 °FSprinkles. Partly sunny.12 mph94%29.95 "HgN/A
9:20 AM59 °FSprinkles. Scattered clouds.14 mph94%29.95 "HgN/A
8:50 AM59 °FSprinkles. Partly sunny.14 mph94%29.95 "Hg6 mi
8:20 AM63 °FThunderstorms. Partly sunny.18 mph83%29.92 "HgN/A
7:50 AM63 °FScattered clouds.18 mph77%29.92 "HgN/A
7:20 AM64 °FSunny.18 mph73%29.92 "Hg10 mi
6:50 AM64 °FSunny.17 mph73%29.92 "Hg10 mi
6:20 AM63 °FSunny.14 mph77%29.89 "Hg10 mi
5:50 AM63 °FSunny.15 mph77%29.89 "Hg10 mi
5:20 AM63 °FClear.17 mph77%29.89 "Hg10 mi
4:50 AM63 °FClear.17 mph77%29.89 "Hg10 mi
4:20 AM63 °FClear.18 mph77%29.89 "Hg10 mi
3:50 AM63 °FClear.15 mph77%29.89 "Hg10 mi
3:20 AM63 °FClear.16 mph77%29.89 "Hg10 mi
2:50 AM64 °FClear.15 mph73%29.89 "Hg10 mi
2:20 AM64 °FClear.17 mph73%29.89 "Hg10 mi
1:50 AM64 °FClear.17 mph73%29.89 "Hg10 mi
1:20 AM64 °FClear.18 mph73%29.89 "Hg10 mi
12:50 AM64 °FClear.20 mph68%29.89 "Hg10 mi
12:20 AM64 °FClear.21 mph68%29.89 "Hg10 mi
11:50 PM
Mon, May 30
66 °FClear.20 mph60%29.89 "Hg10 mi
11:20 PM66 °FClear.20 mph60%29.89 "Hg10 mi
Weather by CustomWeather, © 2016

See weather overviewHow to use our weather pages